INTELSAT 39 (IS-39)

Last updated on Wed Sep 09 2026 00:03:02 GMT+0000 (Coordinated Universal Time)

1 44476U 19049B 26250.17427422 .00000000 00000+0 00000+0 0 9990 2 44476 0.0233 151.5315 0000236 291.2806 28.1327 1.00269479 25957
UTC large
Height (km)
Speed (km/s)
/
Latitude / Longitude
Inclination (degrees)
Orbital Period (minutes)
Azimuth
Elevation
Range (km)
Doppler Factor

Next 0 passes for location: London (51.5072 / 0.1276)

No passes found over London.
INTELSAT 39 (IS-39)